Molokai, HI

2:26 PM HST on March 23, 2017 (GMT -1000)
Molokai

Weather History for PHMK - November, 2013

Change the Weather History Date:

Friday, November 15, 2013

  Actual Average Record
Temperature  
Mean Temperature 78 °F -  
Max Temperature 82 °F 82 °F 89 °F (1986)
Min Temperature 70 °F 67 °F 60 °F (1979)
Cooling Degree Days 12    
Growing Degree Days 28 (Base 50)    
Moisture  
Dew Point 71 °F    
Average Humidity 79    
Maximum Humidity 93    
Minimum Humidity 67    
Precipitation  
Precipitation 0.00 in - - ()
Sea Level Pressure  
Sea Level Pressure 30.02 in    
Wind  
Wind Speed 5 mph (North)    
Max Wind Speed 9 mph    
Max Gust Speed -    
Visibility 10 miles    
Events      
Averages and records for this station are not official NWS values.
T = Trace of Precipitation, MM = Missing Value Source: NWS Daily Summary

Daily Weather History Graph

Daily Weather History Graph

Search for Another Location

Airport or City:

Trip Planner

Search our weather history database for the weather conditions in past years. The results will help you decide how hot, cold, wet, or windy it might be!

Date:

Astronomy

Nov. 15, 2013 Rise Set
Actual Time 6:39 AM HST 5:46 PM HST
Civil Twilight 6:15 AM HST 6:10 PM HST
Nautical Twilight 5:48 AM HST 6:37 PM HST
Astronomical Twilight 5:22 AM HST 7:03 PM HST
Moon 4:41 PM HST (11/15) 4:58 AM HST (11/15)
Length of Visible Light 11h 54m
Length of Day
11h 07m
Waxing Gibbous, 97% of the Moon is Illuminated
Nov 15
Waxing Gibbous
Nov 17
Full
Nov 25
Last Quarter
Dec 2
New
Dec 9
First Quarter

Hourly Weather History & Observations

Time (HST) Temp. Heat Index Dew Point Humidity Pressure Visibility Wind Dir Wind Speed Gust Speed Precip Events Conditions
12:54 AM - - - N/A% 30.02 in 10.0 mi North 6.9 mph - N/A   Partly Cloudy
1:54 AM - - - N/A% 30.01 in 10.0 mi North 8.1 mph - N/A   Clear
2:54 AM - - - N/A% 29.99 in 10.0 mi NNE 8.1 mph - N/A   Clear
3:54 AM - - - N/A% 29.99 in 10.0 mi NE 4.6 mph - N/A   Clear
4:54 AM - - - N/A% 30.00 in 9.0 mi Calm Calm - N/A   Clear
5:54 AM - - - N/A% 30.00 in 10.0 mi NE 4.6 mph - N/A   Clear
6:54 AM - - - N/A% 30.02 in 8.0 mi North 5.8 mph - N/A   Mostly Cloudy
7:50 AM - - - N/A% 30.04 in 5.0 mi WNW 6.9 mph - N/A   Haze
7:54 AM - - - N/A% 30.04 in 5.0 mi WNW 6.9 mph - N/A   Haze
8:54 AM - - - N/A% 30.05 in 8.0 mi Calm Calm - N/A   Partly Cloudy
9:16 AM - - - N/A% 30.06 in 9.0 mi Calm Calm - N/A   Mostly Cloudy
9:54 AM - - - N/A% 30.07 in 10.0 mi Calm Calm - N/A   Overcast
10:07 AM 78.8 °F - 75.2 °F 89% 30.06 in 10.0 mi Calm Calm - N/A   Mostly Cloudy
10:54 AM 80.1 °F 85.1 °F 75.0 °F 85% 30.06 in 10.0 mi SE 8.1 mph - N/A   Mostly Cloudy
11:13 AM 80.6 °F 86.2 °F 75.2 °F 84% 30.05 in 10.0 mi SE 9.2 mph - N/A   Partly Cloudy
11:54 AM 81.0 °F 86.7 °F 75.0 °F 82% 30.04 in 10.0 mi SSE 6.9 mph - N/A   Partly Cloudy
12:54 PM 82.0 °F 87.4 °F 73.0 °F 74% 30.02 in 10.0 mi Calm Calm - N/A   Scattered Clouds
1:01 PM 82.4 °F 87.2 °F 71.6 °F 70% 30.01 in 10.0 mi Variable 4.6 mph - N/A   Overcast
1:27 PM 82.4 °F 87.2 °F 71.6 °F 70% 30.00 in 10.0 mi Variable 5.8 mph - N/A   Overcast
1:54 PM 82.9 °F 88.0 °F 72.0 °F 69% 29.99 in 10.0 mi North 8.1 mph - N/A   Scattered Clouds
2:54 PM 82.9 °F 87.5 °F 71.1 °F 67% 29.98 in 10.0 mi NNE 8.1 mph - N/A   Partly Cloudy
3:54 PM 82.0 °F 86.3 °F 71.1 °F 69% 29.98 in 10.0 mi SSE 9.2 mph - N/A   Scattered Clouds
4:54 PM 80.1 °F 83.2 °F 70.0 °F 71% 29.99 in 10.0 mi West 3.5 mph - N/A   Scattered Clouds
5:54 PM 78.1 °F - 70.0 °F 76% 30.00 in 10.0 mi North 5.8 mph - N/A   Scattered Clouds
6:54 PM 75.0 °F - 70.0 °F 84% 30.02 in 10.0 mi WSW 3.5 mph - N/A   Partly Cloudy
7:54 PM 75.9 °F - 70.0 °F 82% 30.03 in 10.0 mi West 4.6 mph - N/A   Clear
8:54 PM 77.0 °F - 69.1 °F 76% 30.05 in 10.0 mi North 3.5 mph - N/A   Clear
9:54 PM 73.9 °F - 69.1 °F 85% 30.05 in 10.0 mi NNW 4.6 mph - N/A   Clear
10:54 PM 73.0 °F - 69.1 °F 87% 30.06 in 10.0 mi Calm Calm - N/A   Clear
11:54 PM 70.0 °F - 68.0 °F 93% 30.06 in 10.0 mi NNW 3.5 mph - N/A   Clear